CW9425 Weather Reports


Display with metric or nautical units.
time (UTC)temp
F
wind
direction
speed
MPH
gust
MPH
rain 1hr
in
rain 24hr
in
rain mn
in
humidity
%
barometer
mb
20260503223553 74 236 2.0 0.0 0.00 0.00 0.00 24 1017.3
20260503223055 74 215 1.0 0.0 0.00 0.00 0.00 24 1017.4
20260503222557 74 187 0.0 0.0 0.00 0.00 0.00 24 1017.5
20260503222500 74 159 0.0 0.0 0.00 0.00 0.00 24 1017.6
20260503222058 73 42 1.0 0.0 0.00 0.00 0.00 24 1017.8
20260503222006 73 36 1.0 0.0 0.00 0.00 0.00 24 1017.7
20260503221511 74 103 1.0 0.0 0.00 0.00 0.00 24 1017.9
20260503221017 73 163 1.0 0.0 0.00 0.00 0.00 25 1018.0
20260503220522 73 220 0.0 0.0 0.00 0.00 0.00 25 1018.1
20260503220021 72 259 1.0 0.0 0.00 0.00 0.00 26 1018.2
20260503215522 72 259 3.0 0.0 0.00 0.00 0.00 26 1018.2
20260503215029 72 261 4.0 0.0 0.00 0.00 0.00 25 1018.4
20260503214536 72 216 3.0 0.0 0.00 0.00 0.00 25 1018.5
20260503214045 72 216 1.0 0.0 0.00 0.00 0.00 25 1018.6
20260503213541 72 183 1.0 0.0 0.00 0.00 0.00 24 1018.6
20260503213044 71 183 4.0 0.0 0.00 0.00 0.00 24 1018.7
20260503212546 71 217 4.0 0.0 0.00 0.00 0.00 25 1018.7
20260503212049 71 149 3.0 0.0 0.00 0.00 0.00 25 1018.8
20260503211602 71 209 2.0 0.0 0.00 0.00 0.00 25 1018.9
20260503211055 72 232 3.0 0.0 0.00 0.00 0.00 26 1019.0
20260503210558 72 205 3.0 0.0 0.00 0.00 0.00 23 1019.1
20260503210502 72 190 3.0 0.0 0.00 0.00 0.00 23 1019.2
20260503210007 72 178 3.0 0.0 0.00 0.00 0.00 24 1019.3
20260503205513 72 192 1.0 0.0 0.00 0.00 0.00 25 1019.3
20260503205013 72 155 1.0 0.0 0.00 0.00 0.00 26 1019.5
20260503204517 72 168 1.0 0.0 0.00 0.00 0.00 26 1019.6
20260503204022 71 176 1.0 0.0 0.00 0.00 0.00 27 1019.8
20260503203524 71 176 2.0 0.0 0.00 0.00 0.00 26 1020.0
20260503203040 71 165 3.0 0.0 0.00 0.00 0.00 27 1020.0
20260503202536 71 200 2.0 0.0 0.00 0.00 0.00 27 1020.1
20260503202037 71 176 2.0 0.0 0.00 0.00 0.00 29 1020.1
20260503201543 71 124 2.0 0.0 0.00 0.00 0.00 31 1020.3
20260503201044 70 109 2.0 0.0 0.00 0.00 0.00 31 1020.6
20260503200546 70 100 2.0 0.0 0.00 0.00 0.00 31 1020.6
20260503200046 69 77 3.0 0.0 0.00 0.00 0.00 32 1020.7
20260503195552 69 198 2.0 0.0 0.00 0.00 0.00 33 1020.8
20260503195052 68 225 2.0 0.0 0.00 0.00 0.00 34 1020.8
20260503194559 68 178 2.0 0.0 0.00 0.00 0.00 35 1021.0
20260503194100 67 172 2.0 0.0 0.00 0.00 0.00 36 1021.1
20260503194009 67 164 2.0 0.0 0.00 0.00 0.00 36 1021.1
20260503193513 67 194 3.0 0.0 0.00 0.00 0.00 36 1021.2
20260503193012 66 178 4.0 0.0 0.00 0.00 0.00 36 1021.2
20260503192518 66 213 3.0 0.0 0.00 0.00 0.00 36 1021.5
20260503192016 66 212 2.0 0.0 0.00 0.00 0.00 36 1021.6
20260503191525 66 168 2.0 0.0 0.00 0.00 0.00 36 1021.8
20260503191029 65 140 2.0 0.0 0.00 0.00 0.00 36 1021.7
20260503190536 65 117 2.0 0.0 0.00 0.00 0.00 37 1021.8
20260503190043 65 130 2.0 0.0 0.00 0.00 0.00 38 1021.9
20260503185540 64 159 1.0 0.0 0.00 0.00 0.00 38 1021.9
20260503185042 64 126 2.0 0.0 0.00 0.00 0.00 40 1022.0
20260503184546 64 191 2.0 0.0 0.00 0.00 0.00 40 1022.2
20260503184057 64 171 3.0 0.0 0.00 0.00 0.00 40 1022.3
20260503183602 64 128 3.0 0.0 0.00 0.00 0.00 40 1022.2
20260503183503 64 128 3.0 0.0 0.00 0.00 0.00 40 1022.4
20260503183009 64 92 3.0 0.0 0.00 0.00 0.00 41 1022.5
20260503182516 64 182 2.0 0.0 0.00 0.00 0.00 41 1022.4
20260503182019 64 198 3.0 0.0 0.00 0.00 0.00 42 1022.6
20260503181527 64 197 3.0 0.0 0.00 0.00 0.00 41 1022.6
20260503181026 64 200 1.0 0.0 0.00 0.00 0.00 42 1022.8
20260503180530 64 192 1.0 0.0 0.00 0.00 0.00 43 1023.0
20260503180037 64 164 2.0 0.0 0.00 0.00 0.00 42 1023.2
20260503175537 64 204 3.0 0.0 0.00 0.00 0.00 42 1023.3
20260503175046 64 182 3.0 0.0 0.00 0.00 0.00 41 1023.3
20260503174553 64 187 3.0 0.0 0.00 0.00 0.00 42 1023.4
20260503174054 64 137 2.0 0.0 0.00 0.00 0.00 42 1023.4
20260503174004 64 111 2.0 0.0 0.00 0.00 0.00 41 1023.4
20260503173504 64 116 2.0 0.0 0.00 0.00 0.00 42 1023.4
20260503173016 63 185 1.0 0.0 0.00 0.00 0.00 44 1023.6
20260503172507 63 185 1.0 0.0 0.00 0.00 0.00 44 1023.6
20260503172015 62 180 0.0 0.0 0.00 0.00 0.00 44 1023.8
20260503171525 62 165 0.0 0.0 0.00 0.00 0.00 45 1023.8
20260503171021 62 177 0.0 0.0 0.00 0.00 0.00 45 1023.8
20260503170522 61 146 1.0 0.0 0.00 0.00 0.00 46 1023.9
20260503150556 55 232 0.0 0.0 0.00 0.00 0.00 56 1024.8
20260503131023 43 106 0.0 0.0 0.00 0.00 0.00 76 1024.6
20260503130526 43 106 0.0 0.0 0.00 0.00 0.00 76 1024.6
20260503110512 44 106 0.0 0.0 0.00 0.00 0.00 73 1025.0
20260503081550 47 106 0.0 0.0 0.00 0.00 0.00 67 1025.2
20260503081100 48 106 0.0 0.0 0.00 0.00 0.00 66 1025.2
20260503081001 48 106 0.0 0.0 0.00 0.00 0.00 66 1025.2
20260503080506 48 106 0.0 0.0 0.00 0.00 0.00 65 1025.1
20260503072530 49 106 0.0 0.0 0.00 0.00 0.00 61 1025.4
20260503072035 50 106 0.0 0.0 0.00 0.00 0.00 61 1025.3
20260503071544 50 106 0.0 0.0 0.00 0.00 0.00 60 1025.4
20260503071040 50 106 0.0 0.0 0.00 0.00 0.00 60 1025.5
20260503070544 50 106 0.0 0.0 0.00 0.00 0.00 59 1025.4
20260503055043 52 107 1.0 0.0 0.00 0.00 0.02 56 1025.5
20260503054541 52 111 1.0 0.0 0.00 0.00 0.02 56 1025.4
20260503054047 52 112 0.0 0.0 0.00 0.00 0.02 56 1025.3
20260503053557 52 107 1.0 0.0 0.00 0.00 0.02 56 1025.4
20260503053502 52 108 1.0 0.0 0.00 0.00 0.02 56 1025.4
20260503053058 52 108 1.0 0.0 0.00 0.00 0.02 55 1025.4
20260503053004 52 108 0.0 0.0 0.00 0.00 0.02 55 1025.4
20260503052506 52 108 0.0 0.0 0.00 0.00 0.02 55 1025.3
20260503052014 52 107 1.0 0.0 0.00 0.00 0.02 55 1025.4
20260503051513 52 108 1.0 0.0 0.00 0.00 0.02 55 1025.4
20260503051017 52 108 1.0 0.0 0.00 0.00 0.02 55 1025.4
20260503050523 52 109 1.0 0.0 0.00 0.00 0.02 55 1025.3
20260503050029 52 109 1.0 0.0 0.00 0.00 0.02 55 1025.4
20260503045539 53 109 1.0 0.0 0.00 0.00 0.02 55 1025.3
20260503045036 53 109 1.0 0.0 0.00 0.00 0.02 55 1025.3
20260503044539 53 109 0.0 0.0 0.00 0.00 0.02 55 1025.3
20260503044047 53 109 0.0 0.0 0.00 0.00 0.02 55 1025.2
20260503043553 53 109 0.0 0.0 0.00 0.00 0.02 55 1025.3
20260503043103 53 109 1.0 0.0 0.00 0.00 0.02 54 1025.2
20260503043003 53 109 1.0 0.0 0.00 0.00 0.02 54 1025.2
20260503042509 53 109 2.0 0.0 0.00 0.00 0.02 54 1025.2
20260503042015 53 110 1.0 0.0 0.00 0.00 0.02 54 1025.2
20260503041522 53 110 1.0 0.0 0.00 0.00 0.02 54 1025.2
20260503041027 54 111 2.0 0.0 0.00 0.00 0.02 54 1025.0
20260503040535 54 111 2.0 0.0 0.00 0.00 0.02 54 1025.1
20260503040039 54 110 2.0 0.0 0.00 0.00 0.02 53 1025.1
20260503035540 54 87 2.0 0.0 0.00 0.00 0.02 53 1025.1
20260503034601 54 118 3.0 0.0 0.00 0.00 0.02 53 1025.0
20260503034048 54 101 3.0 0.0 0.00 0.00 0.02 53 1025.0
20260503033533 54 95 3.0 0.0 0.00 0.00 0.02 52 1024.9
20260503033018 54 107 3.0 0.0 0.00 0.00 0.02 51 1024.9
20260503032505 55 109 2.0 0.0 0.00 0.00 0.02 50 1024.8
20260503032057 55 91 1.0 0.0 0.00 0.00 0.02 50 1024.8
20260503031542 55 105 1.0 0.0 0.00 0.00 0.02 49 1024.6
20260503031029 55 106 1.0 0.0 0.00 0.00 0.02 49 1024.5
20260503030514 55 128 1.0 0.0 0.00 0.00 0.02 49 1024.4
20260503030004 55 133 2.0 0.0 0.00 0.00 0.02 49 1024.3
20260503025555 55 165 1.0 0.0 0.00 0.00 0.02 48 1024.2
20260503025040 55 123 0.0 0.0 0.00 0.00 0.02 48 1024.1
20260503024530 55 124 0.0 0.0 0.00 0.00 0.02 49 1023.9
20260503024015 55 112 0.0 0.0 0.00 0.00 0.02 49 1023.9
20260503023503 55 97 0.0 0.0 0.00 0.00 0.02 50 1023.8
20260503023100 55 97 0.0 0.0 0.00 0.00 0.02 51 1023.7
20260503022538 56 96 0.0 0.0 0.00 0.00 0.02 51 1023.6
20260503022027 56 96 0.0 0.0 0.00 0.00 0.02 52 1023.5
20260503021512 56 32 0.0 0.0 0.00 0.00 0.02 54 1023.4
20260503021059 57 32 0.0 0.0 0.00 0.00 0.02 55 1023.3
20260503020547 57 32 0.0 0.0 0.00 0.00 0.02 54 1023.3
20260503020034 57 32 0.0 0.0 0.00 0.00 0.02 54 1023.1
20260503015522 57 32 0.0 0.0 0.00 0.00 0.02 55 1023.1
20260503015010 57 32 0.0 0.0 0.00 0.00 0.02 55 1023.3
20260503014600 57 32 0.0 0.0 0.00 0.00 0.02 57 1023.2
20260503014049 57 32 0.0 0.0 0.00 0.00 0.02 57 1023.3
20260503013535 57 32 0.0 0.0 0.00 0.00 0.02 59 1023.3
20260503013022 57 32 0.0 0.0 0.00 0.00 0.02 59 1023.3
20260503012511 57 32 0.0 0.0 0.00 0.00 0.02 59 1023.1
20260503012058 57 32 0.0 0.0 0.00 0.00 0.02 60 1023.1
20260503011601 57 32 0.0 0.0 0.00 0.00 0.02 60 1023.1
20260503011038 57 32 0.0 0.0 0.00 0.00 0.02 57 1023.2
20260503010523 57 32 0.0 0.0 0.00 0.00 0.02 59 1023.3
20260503010016 57 32 0.0 0.0 0.00 0.00 0.02 58 1023.2
20260503005502 57 32 0.0 0.0 0.00 0.00 0.02 60 1023.3
20260503005053 58 33 0.0 0.0 0.00 0.00 0.02 58 1023.2
20260503004536 58 33 0.0 0.0 0.00 0.00 0.02 56 1023.3
20260503004028 58 33 1.0 0.0 0.00 0.00 0.02 55 1023.4
20260503003511 59 109 4.0 0.0 0.00 0.00 0.01 54 1023.7
20260503003001 59 123 6.0 0.0 0.00 0.00 0.00 52 1023.5
20260503002543 60 89 7.0 0.0 0.00 0.00 0.00 47 1023.4
20260503002030 61 111 6.0 0.0 0.00 0.00 0.00 46 1023.4
20260503001519 63 103 5.0 0.0 0.00 0.00 0.00 46 1023.4
20260503001004 65 110 3.0 0.0 0.00 0.00 0.00 39 1023.3
20260503000553 65 129 2.0 0.0 0.00 0.00 0.00 37 1023.4
20260503000058 66 112 1.0 0.0 0.00 0.00 0.00 33 1023.3
20260502235525 66 251 2.0 0.0 0.00 0.00 0.00 33 1023.3
20260502235004 67 251 1.0 0.0 0.00 0.00 0.00 32 1023.3
20260502234552 67 202 0.0 0.0 0.00 0.00 0.00 32 1023.2
20260502234043 67 202 1.0 0.0 0.00 0.00 0.00 31 1023.1
20260502233532 68 202 1.0 0.0 0.00 0.00 0.00 31 1023.2
20260502233019 68 202 1.0 0.0 0.00 0.00 0.00 30 1023.2
20260502232509 68 202 2.0 0.0 0.00 0.00 0.00 30 1023.3
20260502232059 69 99 2.0 0.0 0.00 0.00 0.00 31 1023.2
20260502231546 69 199 2.0 0.0 0.00 0.00 0.00 30 1023.2
20260502231033 70 198 2.0 0.0 0.00 0.00 0.00 30 1023.2
20260502230521 70 198 1.0 0.0 0.00 0.00 0.00 30 1023.4
20260502230005 70 221 0.0 0.0 0.00 0.00 0.00 30 1023.4
20260502225553 70 242 0.0 0.0 0.00 0.00 0.00 30 1023.5
20260502225038 69 182 0.0 0.0 0.00 0.00 0.00 30 1023.5
20260502224530 69 167 0.0 0.0 0.00 0.00 0.00 30 1023.5